Location: Unspecified
(50.1700°N, 6.8600°E)
Time: 13:02:19
(UTC+00:00)

Lacrosse 5 - Pass Details

Date: 24 January 2019
Orbit: 713 x 725 km, 57.0° (Epoch: 17 February)

Event Time Altitude Azimuth Distance (km) Brightness Sun altitude
Exits shadow 05:38:33 21° 311° (NW) 1,561 3.1 -15.6°
Maximum altitude 05:41:45 56° 23° (NNE) 853 2.3 -15.1°
Drops below altitude 10° 05:46:43 10° 101° (ESE) 2,197 5.8 -14.3°
Sets 05:49:09 0° 106° (ESE) 3,117 7.2 -14.0°
